Wind_Speed
48 46 46 48 52 56 59 63 61 51 49 33 38 39 38 37 35 34 34 31 28 21 19 20 16 14 14 14 14 14 13 14 23 29 30 33 38 41 41 43 46 46 43
43 43 46 50 54 58 62 60 53 49 32 30 34 32 33 28 30 29 28 28 25 17 14 11 11 10 11 12 13 15 12 5 16 18 24 28 34 38 36 40 40 39 43
40 42 48 52 56 61 59 54 44 29 28 30 28 28 28 28 29 27 25 25 22 15 9 9 10 12 12 13 13 13 15 16 3 10 16 19 25 28 27 30 30 32 34
41 44 48 54 60 57 53 39 27 25 26 25 25 21 23 27 26 24 23 24 21 14 11 9 9 11 12 13 14 15 16 15 14 8 6 13 19 17 21 26 25 21 29
42 46 51 57 57 50 35 27 24 23 24 22 23 20 22 22 22 23 23 22 20 15 12 11 10 10 11 12 13 12 12 13 12 11 11 7 14 17 17 25 28 20 18
42 48 52 58 50 39 24 22 22 25 20 20 22 18 19 18 19 22 24 22 18 16 13 10 8 8 9 10 11 12 12 9 6 6 8 8 11 12 12 24 22 21 17
44 49 55 54 43 28 21 21 21 22 18 18 20 17 17 22 20 20 21 20 18 15 12 11 10 11 10 11 12 10 8 7 5 2 1 4 6 8 10 14 17 18 19
45 50 56 47 39 25 18 18 17 18 17 18 18 18 20 21 20 19 19 18 17 16 14 13 13 12 13 14 13 12 10 9 7 3 1 5 7 10 13 15 17 18 19
46 50 52 45 33 21 16 16 14 14 16 17 17 17 18 17 18 20 20 16 17 16 15 14 14 14 13 14 15 14 13 12 10 8 7 7 9 7 7 11 16 18 20
45 50 46 37 24 17 13 12 11 14 17 18 16 17 16 15 19 21 22 21 18 18 18 18 18 17 18 18 17 17 16 15 15 15 13 12 13 14 17 19 18 20 20
42 47 41 32 21 16 12 11 13 17 20 21 17 16 15 14 19 20 22 23 23 23 23 23 24 26 26 25 25 24 22 20 20 18 16 16 16 15 16 15 12 12 15
40 43 36 27 18 16 14 14 15 19 18 15 12 12 12 14 19 21 23 24 24 25 26 27 29 29 29 29 28 27 26 23 20 17 18 17 16 12 13 15 14 14 13
38 38 32 23 19 15 15 15 15 13 13 13 14 15 17 19 21 23 24 25 27 28 29 30 31 32 32 31 30 29 27 26 26 25 22 21 20 19 18 16 13 12 13
36 35 28 20 17 14 14 14 12 14 15 15 15 17 20 21 22 23 27 29 30 31 33 35 37 36 34 31 26 23 21 20 21 23 28 27 25 23 21 20 18 16 16
33 32 26 17 13 11 13 14 14 16 17 18 19 22 23 24 25 28 30 32 34 37 39 39 37 29 19 18 20 21 22 23 24 25 24 20 23 26 25 23 22 19 18
31 29 26 17 13 12 12 14 14 15 15 17 20 22 21 23 27 31 33 36 39 42 41 35 26 19 24 25 25 27 27 27 27 26 24 21 22 22 23 22 21 19 17
29 28 23 19 15 12 13 14 15 16 18 21 23 24 25 27 30 32 35 39 42 40 33 26 20 25 28 28 29 30 31 31 30 25 20 18 17 14 19 18 17 15 13
28 28 23 20 16 12 12 13 15 17 18 21 22 23 25 29 31 35 39 42 40 36 30 25 25 30 30 31 31 29 30 32 26 20 16 11 12 8 15 15 13 11 10
27 29 24 22 19 16 12 12 16 18 19 20 22 23 26 29 33 38 41 41 35 29 27 26 30 29 28 30 27 27 30 31 20 13 8 7 6 9 14 13 11 8 6
27 28 25 22 22 19 17 16 17 17 20 21 23 26 28 32 36 39 40 35 29 29 29 30 31 29 30 28 23 24 29 25 19 5 3 2 5 11 12 10 8 6 8
26 28 26 23 21 16 12 12 13 16 20 22 23 25 28 33 37 38 35 28 28 28 28 28 30 27 25 21 19 23 24 23 22 19 17 15 14 13 11 8 11 12 9
24 27 25 23 21 18 15 14 14 15 18 21 23 25 30 35 36 36 30 28 27 25 26 30 30 28 22 17 16 20 21 19 22 23 22 19 16 13 15 15 14 11 9
23 27 25 23 21 17 16 14 15 15 17 20 22 26 31 34 35 31 28 26 25 26 29 29 28 22 18 15 13 16 19 15 17 18 19 18 19 19 16 14 13 11 10
22 26 26 23 21 17 16 16 14 12 15 18 21 27 31 32 31 29 25 26 28 30 30 28 23 18 15 12 11 14 15 18 19 21 22 21 19 17 16 15 13 12 16
22 24 26 23 22 18 17 17 13 10 14 17 22 28 29 31 27 25 25 28 29 29 28 25 22 18 14 12 13 14 18 20 21 20 19 19 19 18 17 15 16 21 23
21 24 26 22 21 19 17 16 9 9 13 16 23 26 28 26 24 21 25 26 26 23 23 24 26 25 21 17 16 16 18 18 17 17 17 19 19 18 17 18 24 24 22
Wind_Direction
311 312 312 313 313 312 312 313 314 313 314 312 322 324 322 319 325 327 330 329 327 324 326 332 333 328 323 323 322 314 295 258 245 246 235 225 226 228 227 225 234 236 240
311 313 314 315 315 314 314 315 314 315 315 316 322 332 335 337 334 336 340 341 344 339 341 357 6 19 20 16 20 31 26 258 244 246 239 229 226 229 222 231 228 235 234
314 315 317 317 317 317 317 316 316 317 321 319 327 332 333 341 343 345 350 353 358 9 18 30 32 33 25 26 26 31 37 42 343 231 224 227 231 233 227 230 231 236 235
316 317 320 320 319 319 319 318 319 322 323 327 332 338 335 346 349 356 0 11 17 31 39 47 46 43 36 33 35 40 43 46 50 51 205 214 216 213 212 214 204 224 221
318 320 322 322 322 321 322 324 327 323 323 331 334 327 338 348 355 7 9 13 22 29 40 41 39 32 28 25 24 27 33 39 46 63 82 128 191 226 204 206 201 213 211
321 323 326 325 324 323 321 328 332 333 335 328 330 324 347 348 348 359 5 10 14 19 26 31 26 18 8 5 1 0 4 16 33 57 76 119 150 170 195 197 218 223 218
323 327 328 327 330 324 319 327 333 337 340 333 322 326 328 337 335 338 349 355 4 5 358 356 353 346 343 338 337 339 352 4 10 342 206 170 167 182 199 206 212 217 220
326 330 330 329 331 326 322 326 333 335 334 327 329 330 334 338 342 348 350 357 357 351 357 359 358 353 350 344 338 332 330 335 329 324 218 220 222 220 216 217 221 225 228
328 333 332 335 332 321 326 329 336 334 338 345 345 345 344 355 3 5 359 356 3 1 356 354 345 341 327 329 334 330 320 305 309 293 292 266 226 234 253 257 242 237 236
332 334 335 338 334 338 325 323 320 333 336 337 339 343 350 359 360 1 4 11 1 355 354 352 347 346 344 334 329 329 327 327 322 307 291 271 264 245 245 271 258 250 240
336 336 338 343 350 0 354 330 318 323 328 332 333 336 338 349 352 355 356 354 351 348 344 341 338 335 334 334 332 330 331 326 321 314 311 306 276 265 261 274 253 243 224
338 340 341 345 351 353 342 334 328 328 336 344 348 348 346 346 348 348 346 340 338 336 333 330 327 325 323 321 317 314 313 311 306 299 299 298 297 287 282 282 300 231 220
340 343 343 348 346 352 348 347 344 350 359 4 4 359 353 351 345 340 337 335 332 332 331 330 328 325 320 314 310 307 305 302 300 296 288 275 266 265 269 273 267 253 251
343 344 344 349 342 354 354 355 349 351 353 353 354 352 347 341 336 335 334 333 331 332 332 331 327 320 315 314 313 315 315 315 308 300 287 279 271 260 247 244 249 249 252
345 344 344 345 347 351 351 343 348 348 349 348 346 345 343 340 336 333 331 331 332 332 331 331 326 330 342 346 335 323 315 308 305 302 298 293 286 261 248 238 236 239 243
345 344 343 335 346 350 346 343 341 343 343 342 341 339 336 332 331 332 332 332 333 333 334 331 338 346 337 333 330 327 323 318 314 307 300 288 293 262 237 235 234 236 240
342 345 341 327 324 335 342 337 338 344 342 341 340 337 335 334 332 330 331 334 336 334 334 340 339 335 334 330 327 323 321 318 314 306 298 291 304 260 219 218 222 225 228
340 343 341 328 308 318 334 339 340 341 343 335 334 334 333 331 330 333 336 338 338 340 342 341 334 334 332 330 327 325 323 319 314 303 289 276 305 234 200 197 200 207 221
338 340 342 336 320 288 301 335 337 338 333 330 331 332 332 332 334 336 338 340 341 343 343 339 339 338 339 337 336 334 329 328 326 312 298 264 307 184 181 179 185 195 216
334 340 340 338 330 309 286 290 310 324 327 332 334 335 334 335 337 338 339 341 344 345 346 343 342 339 342 342 345 347 345 351 353 360 349 144 134 153 158 158 167 166 153
333 338 336 339 336 330 315 304 299 322 328 331 332 333 333 334 336 339 342 345 346 347 348 350 351 348 345 351 359 3 9 29 48 71 99 114 127 136 138 141 135 129 129
330 335 336 337 335 334 314 308 311 313 319 327 331 332 333 336 340 344 347 348 346 346 349 348 347 348 354 2 12 18 30 59 74 81 93 104 112 114 114 114 115 114 109
330 331 336 334 329 326 325 319 320 316 320 330 332 336 336 339 343 349 349 350 349 348 346 343 342 348 0 11 24 26 36 63 79 85 91 93 98 100 101 100 97 97 88
328 331 336 337 335 328 324 320 319 322 329 333 338 338 340 344 350 351 353 357 356 352 349 351 355 359 6 27 42 38 47 68 81 87 93 95 93 91 90 91 88 74 85
327 330 336 337 336 327 329 328 330 339 337 341 343 343 347 351 353 354 0 1 360 360 5 13 18 24 41 58 58 64 80 85 88 88 87 86 87 90 90 86 77 89 89
325 331 337 337 336 329 324 325 332 341 341 348 347 347 352 355 355 2 3 6 7 17 26 31 37 45 52 61 74 79 83 83 83 82 81 87 92 91 87 84 93 93 91
Height
5783 5775 5768 5760 5752 5743 5731 5719 5709 5699 5689 5682 5674 5666 5658 5649 5641 5632 5623 5615 5607 5602 5598 5594 5589 5585 5582 5578 5575 5571 5569 5568 5566 5567 5573 5581 5586 5592 5601 5609 5615 5622 5627
5775 5768 5760 5752 5743 5732 5719 5708 5698 5688 5681 5675 5669 5662 5654 5645 5637 5629 5621 5612 5605 5599 5596 5593 5589 5586 5583 5580 5576 5572 5567 5564 5562 5565 5570 5576 5581 5587 5597 5602 5610 5615 5619
5766 5759 5751 5743 5733 5721 5708 5698 5688 5682 5676 5671 5665 5659 5652 5644 5636 5628 5620 5612 5604 5600 5597 5594 5592 5589 5585 5582 5578 5575 5570 5566 5563 5563 5567 5573 5578 5584 5591 5597 5603 5607 5613
5760 5752 5742 5733 5722 5710 5699 5688 5682 5677 5672 5667 5662 5657 5650 5644 5636 5627 5620 5612 5606 5602 5600 5597 5595 5591 5589 5585 5582 5578 5575 5571 5568 5565 5566 5570 5575 5581 5585 5590 5596 5599 5604
5754 5745 5734 5724 5712 5701 5691 5684 5678 5674 5669 5665 5659 5655 5649 5644 5637 5629 5622 5616 5610 5606 5602 5600 5597 5595 5591 5588 5585 5582 5579 5577 5574 5572 5571 5571 5575 5579 5583 5586 5591 5595 5597
5746 5737 5726 5715 5703 5693 5686 5680 5675 5670 5666 5661 5658 5652 5647 5643 5638 5631 5625 5619 5614 5611 5606 5603 5600 5597 5594 5590 5587 5583 5581 5579 5578 5576 5575 5575 5577 5579 5581 5585 5588 5591 5594
5739 5729 5718 5706 5695 5687 5682 5677 5672 5668 5664 5660 5655 5651 5646 5642 5637 5632 5627 5621 5616 5612 5608 5605 5602 5599 5595 5591 5588 5584 5581 5579 5578 5578 5577 5578 5578 5579 5581 5582 5585 5587 5589
5733 5723 5710 5698 5688 5682 5678 5674 5670 5666 5663 5659 5654 5650 5646 5641 5636 5631 5627 5622 5617 5614 5610 5606 5603 5599 5596 5592 5589 5586 5583 5581 5579 5577 5577 5577 5577 5578 5579 5581 5582 5584 5586
5727 5716 5704 5691 5682 5677 5674 5671 5669 5666 5662 5658 5654 5650 5645 5641 5636 5632 5627 5622 5618 5615 5611 5607 5603 5600 5596 5593 5589 5586 5583 5580 5578 5577 5576 5575 5575 5575 5575 5576 5577 5578 5579
5721 5710 5698 5688 5680 5674 5671 5670 5668 5665 5661 5658 5654 5650 5646 5642 5637 5633 5628 5623 5619 5615 5611 5606 5602 5599 5595 5592 5588 5585 5581 5579 5577 5575 5574 5573 5572 5571 5571 5571 5571 5571 5572
5716 5705 5694 5685 5678 5674 5671 5670 5668 5664 5661 5657 5653 5650 5646 5642 5639 5634 5629 5625 5620 5615 5611 5606 5602 5597 5593 5589 5585 5582 5579 5576 5574 5572 5570 5568 5568 5567 5566 5565 5564 5565 5565
5712 5701 5692 5684 5679 5675 5672 5670 5667 5664 5660 5656 5652 5649 5646 5642 5638 5634 5630 5626 5621 5615 5610 5605 5600 5596 5591 5586 5582 5577 5573 5570 5568 5567 5565 5564 5563 5562 5562 5562 5560 5559 5561
5708 5699 5691 5684 5679 5675 5673 5670 5667 5663 5660 5657 5653 5650 5646 5643 5639 5634 5629 5625 5619 5614 5608 5602 5597 5591 5585 5579 5575 5570 5567 5563 5561 5558 5557 5556 5555 5555 5555 5555 5556 5557 5557
5704 5696 5690 5683 5679 5675 5673 5671 5668 5665 5661 5658 5655 5651 5647 5643 5638 5633 5628 5622 5616 5610 5604 5597 5590 5583 5576 5571 5566 5562 5559 5555 5552 5550 5547 5546 5546 5546 5546 5547 5549 5550 5551
5701 5695 5689 5684 5680 5676 5674 5672 5669 5665 5662 5658 5654 5650 5645 5641 5636 5631 5625 5619 5612 5606 5598 5590 5582 5575 5570 5567 5563 5559 5555 5551 5547 5543 5540 5537 5535 5535 5537 5538 5540 5542 5544
5700 5693 5687 5683 5679 5676 5673 5671 5668 5665 5661 5658 5653 5649 5645 5640 5635 5628 5621 5615 5608 5600 5592 5584 5577 5573 5569 5563 5558 5553 5548 5543 5539 5534 5530 5527 5525 5524 5527 5530 5533 5535 5538
5698 5692 5687 5682 5678 5675 5672 5669 5666 5663 5659 5656 5651 5647 5642 5638 5632 5626 5619 5611 5603 5595 5588 5580 5576 5571 5566 5559 5554 5548 5542 5535 5529 5525 5522 5520 5517 5515 5519 5524 5527 5531 5533
5696 5690 5685 5680 5677 5674 5671 5669 5665 5662 5658 5654 5650 5645 5640 5635 5629 5622 5615 5607 5599 5590 5583 5578 5574 5568 5561 5554 5547 5541 5535 5527 5521 5517 5514 5514 5513 5511 5515 5520 5524 5527 5530
5693 5688 5682 5677 5673 5671 5669 5667 5663 5660 5657 5653 5648 5643 5638 5632 5626 5619 5611 5602 5595 5589 5583 5577 5571 5564 5557 5550 5544 5537 5530 5521 5514 5511 5510 5510 5510 5511 5515 5519 5523 5526 5528
5691 5685 5680 5675 5671 5666 5664 5664 5660 5659 5654 5650 5645 5640 5635 5629 5623 5615 5608 5600 5593 5587 5580 5573 5567 5560 5554 5547 5542 5536 5527 5518 5511 5508 5509 5510 5510 5513 5517 5521 5524 5526 5529
5689 5683 5678 5673 5668 5664 5661 5660 5658 5656 5652 5648 5643 5638 5633 5627 5621 5613 5605 5598 5592 5585 5579 5572 5565 5558 5552 5547 5543 5537 5530 5522 5516 5512 5512 5514 5516 5519 5522 5524 5527 5529 5529
5686 5681 5676 5671 5667 5663 5659 5657 5655 5653 5650 5646 5641 5636 5630 5624 5617 5610 5602 5596 5590 5584 5577 5571 5564 5558 5553 5549 5545 5540 5535 5530 5526 5524 5523 5523 5524 5525 5527 5529 5530 5531 5532
5683 5679 5674 5669 5665 5661 5658 5655 5652 5649 5647 5643 5639 5633 5628 5622 5615 5608 5601 5595 5589 5583 5576 5569 5563 5558 5554 5550 5548 5544 5540 5537 5534 5532 5531 5531 5531 5532 5533 5533 5534 5535 5535
5681 5676 5671 5667 5663 5659 5655 5652 5649 5647 5644 5641 5637 5632 5626 5620 5613 5607 5601 5594 5588 5582 5575 5568 5562 5557 5555 5553 5551 5548 5545 5543 5541 5540 5539 5539 5539 5540 5540 5539 5539 5539 5538
5678 5674 5669 5665 5661 5657 5654 5650 5648 5645 5642 5639 5635 5630 5625 5619 5612 5607 5601 5595 5588 5583 5576 5570 5564 5560 5557 5556 5555 5553 5552 5551 5550 5548 5547 5547 5547 5547 5546 5546 5545 5544 5544
5676 5672 5667 5663 5659 5654 5651 5649 5646 5643 5641 5638 5634 5629 5624 5618 5613 5607 5602 5596 5591 5586 5581 5576 5571 5567 5563 5562 5560 5559 5559 5558 5557 5556 5555 5555 5554 5554 5554 5553 5553 5553 5553